Regional Weather Roundup
Issued by NWS

Home | Current Version | Previous Version | Text Only | Print | Product List | Glossary Off
Versions: 1 2 3 4 5 6 7 8 9 10 11 12 13 14 15 16 17 18 19 20 21 22 23 24 25 26 27 28 29 30 31 32 33 34 35 36 37 38 39 40 41 42 43 44 45 46 47 48 49 50

000
ASUS43 KMKX 211711
RWRWI

WISCONSIN REGIONAL WEATHER ROUNDUP
NATIONAL WEATHER SERVICE MILWAUKEE/SULLIVAN WI
1100 AM CST TUE FEB 21 2017

NOTE: "FAIR" INDICATES FEW OR NO CLOUDS BELOW 12,000 FEET WITH NO
SIGNIFICANT WEATHER AND/OR OBSTRUCTIONS TO VISIBILITY.

WIZ001-002-006>008-014>016-023>028-211800-
NORTHWEST WISCONSIN

CITY           SKY/WX    TMP DP  RH WIND       PRES   REMARKS
SUPERIOR ARPT  MOSUNNY   42  37  81 W7        29.84S
ASHLAND        SUNNY     46  37  71 SW10      29.84S
HAYWARD        PTSUNNY   39  35  86 S5        29.87S
SIREN          MOSUNNY   41  37  87 S6        29.87F
CUMBERLAND     FOG       36  34  93 S5        29.89S VSB 1/2 WCI  32
RICE LAKE      CLOUDY    37  36  99 S7        29.91S FOG     WCI  31
CHETEK         CLOUDY    38  36  92 SE3       29.91S
LADYSMITH      CLOUDY    37  36  94 SW7       29.92R FOG     WCI  32
EAU CLAIRE     PTSUNNY   40  37  89 SE3       29.91S
MENOMONIE      FOG       38  38  97 SE6       29.91S VSB 3/4 WCI  34
NEW RICHMOND   CLOUDY    40  40 100 SE6       29.88F FOG
OSCEOLA        CLOUDY    39  39 100 SE8       29.90F FOG     WCI  34
$$

WIZ003>005-009-010-017-018-211800-
NORTH CENTRAL WISCONSIN

CITY           SKY/WX    TMP DP  RH WIND       PRES   REMARKS
MANITOWISH WTR SUNNY     43  37  79 W5        29.85R
ARBOR VITAE    SUNNY     45  37  74 W6        29.86R
WOODRUFF       SUNNY     45  37  74 W6        29.86R
RHINELANDER    SUNNY     47  38  71 W7        29.86R
EAGLE RIVER    SUNNY     44  35  70 W8        29.84S
LAND O LAKES   SUNNY     47  35  63 SW6       29.85R
PHILLIPS       MOSUNNY   39  37  90 SW6       29.88S WCI  35
TOMAHAWK       SUNNY     45  36  69 W6        29.89R
MEDFORD        CLOUDY    36  35  97 SW5       29.90S FOG     WCI  32
MERRILL        NOT AVBL
$$

WIZ029-030-035-036-043>047-211800-
CENTRAL WISCONSIN

CITY           SKY/WX    TMP DP  RH WIND       PRES   REMARKS
WAUSAU         SUNNY     42  37  82 NW7       29.89R
MOSINEE        MOSUNNY   39  37  93 SW6       29.92R WCI  35
MARSHFIELD     MOSUNNY   43  39  86 W7        29.90S
STEVENS POINT  SUNNY     44  37  78 W3        29.91S
WAUPACA        SUNNY     53  41  65 SW6       29.92R
WAUTOMA        SUNNY     51  41  68 SW5       29.92F
WISC RAPIDS    SUNNY     48  41  76 W6        29.93R
CAMP DOUGLAS   SUNNY     50  41  71 S7        29.93R
$$

WIZ011>013-019>022-031-037>040-048>050-211800-
NORTHEAST WISCONSIN

CITY           SKY/WX    TMP DP  RH WIND       PRES   REMARKS
ANTIGO         SUNNY     43  37  81 SW8       29.89R
SHAWANO        SUNNY     51  41  69 W5        29.90R
OCONTO         SUNNY     52  40  64 W7        29.88R
STURGEON BAY   SUNNY     51  40  65 W12       29.88S
GREEN BAY      SUNNY     52  43  71 SW7       29.90S
MANITOWOC      SUNNY     52  42  69 W9        29.91S
APPLETON       SUNNY     48  39  71 SW7       29.89F
CLINTONVILLE   SUNNY     50  37  62 SW7       29.90R
OSHKOSH        SUNNY     50  43  77 W6        29.92R
$$

WIZ032>034-041-042-053>061-211800-
SOUTHWEST WISCONSIN

CITY           SKY/WX    TMP DP  RH WIND       PRES   REMARKS
LA CROSSE      SUNNY     48  39  71 S6        29.94R
SPARTA         SUNNY     46  40  80 W5        29.95R
VIROQUA        SUNNY     48  41  76 CALM      29.94R
BOSCOBEL       SUNNY     50  41  71 CALM      29.96S
PRAIRIE DU CHI SUNNY     48  39  72 CALM      29.96S
PLATTEVILLE    SUNNY     50  45  80 CALM      29.95S
$$

WIZ056-057-062-063-064-067-068-211800-
SOUTH CENTRAL WISCONSIN

CITY           SKY/WX    TMP DP  RH WIND       PRES   REMARKS
REEDSBURG      SUNNY     48  45  89 S3        29.94R
BARABOO/DELLS  SUNNY     48  42  78 SW3       29.93F
LONE ROCK      SUNNY     49  41  74 CALM      29.95F
MINERAL POINT  SUNNY     52  45  76 CALM      29.94S
MADISON        MOSUNNY   47  44  90 VRB7      29.94S
MIDDLETON        N/A     51  44  79 CALM      29.95S
WATERTOWN      MOSUNNY   49  46  87 CALM      29.94S
MONROE         SUNNY     54  43  66 CALM      29.94S
JANESVILLE     MOSUNNY   54  48  82 W3        29.94S
$$

WIZ051-052-058>065-066-070>072-211800-
SOUTHEAST WISCONSIN

CITY           SKY/WX    TMP DP  RH WIND       PRES   REMARKS
MILWAUKEE      MOSUNNY   58  46  64 W3        29.93F
WAUKESHA       MOSUNNY   52  43  71 W10       29.94F
MILWAUKEE/TIMM SUNNY     54  43  66 W7        29.94S
RACINE         MOSUNNY   57  48  72 SW7       29.95R
KENOSHA        PTSUNNY   56  49  77 W6        29.93S
FOND DU LAC    SUNNY     50  41  71 SW7       29.92S
SHEBOYGAN      SUNNY     51  43  74 W10       29.91S
WEST BEND      SUNNY     52  43  71 W7        29.92F
JUNEAU         PTSUNNY   46  41  84 S3        29.95S
$$

LSZ147-162-211800-
LAKE SUPERIOR

STATION/POSITION TIME  TEMP    WIND        PRES    WAVE
                       AIR SEA DIR/SP/G            HT/PER
                 (UTC) (F)     (DEG/KT/KT) (MB)    (FT/S)
DEVILS ISLAND    1700   35     240/ 17/ 21 1010.8R
PORT WING        1640   36     270/ 10/ 13 1010.8R
SAXON HARBOR     1630   48     200/ 10/ 13 1009.8S
$$

LMZ867-665-643>646-211800-
LAKE MICHIGAN

STATION/POSITION TIME  TEMP    WIND        PRES    WAVE
                       AIR SEA DIR/SP/G            HT/PER
                 (UTC) (F)     (DEG/KT/KT) (MB)    (FT/S)
CHAMBERS ISLAND  1640   46     140/  5/  8 1010.8F
NORTHPORT PIER   1640   52     290/  5/ 11 1010.8S
SISTER BAY       1620   55     270/  8/ 10   N/A
KEWAUNEE LAKESHO 1648   51     280/ 11/ 15 1011.4F
SHEBOYGAN LAKESH 1700   50     270/  7/  8 1013.0S
PORT WASHINGTON  1640   54     270/  5/  9 1014.2S
MILWAUKEE LAKESH 1650   54     240/  5/  7   N/A
KENOSHA   LAKESH 1700   56     250/  7/  8 1013.5
$$

TC  - TEMPERATURE IN CELSIUS
VSB - VISIBILITY IN STATUTE MILES
WCI - WIND CHILL INDEX
HX  - HEAT INDEX





USA.gov is the U.S. government's official web portal to all federal, state and local government web resources and services.